Weather Roundup
Issued by NWS

Home | Current Version | Previous Version | Graphics & Text | Print | Product List | Glossary Off
Versions: 1 2 3 4 5 6 7 8 9 10 11 12 13 14 15 16 17 18 19 20 21 22 23 24 25 26 27 28 29 30 31 32 33 34 35 36 37 38 39 40 41 42 43 44 45 46 47 48 49 50

000
NZUS93 KARX 170959
HRRWXR

CURRENT HOURLY OBSERVATIONS ACROSS
MUCH OF THE UPPER MISSISSIPPI VALLEY
NATIONAL WEATHER SERVICE LA CROSSE WI
500 AM CDT TUE OCT 17 2017


...SOUTHEAST MINNESOTA...


CITY           SKY/WX    TMP DP  RH WIND       PRES   REMARKS
ROCHESTER      CLEAR     48  40  73 SW13      30.03S
ROCHESTER/MAYO FAIR      52  39  63 W7        30.02S
WINONA         CLEAR     48  41  76 CALM      30.02S
AUSTIN         CLEAR     45  39  81 S3        30.04S
ALBERT LEA     CLEAR     52  43  71 SW8       30.03S
DODGE CENTER   CLEAR     48  39  71 SW8       30.02S
PRESTON        CLEAR     49  39  67 SW13      30.04S
OWATONNA       CLEAR     48  39  71 CALM      30.02S
FARIBAULT      CLEAR     46  41  81 S7        30.01S
$$

...ELSEWHERE IN MINNESOTA...


CITY           SKY/WX    TMP DP  RH WIND       PRES   REMARKS
MINNEAPOLIS    CLEAR     50  41  71 SW3       29.98S
INTNL FALLS    CLEAR     31  28  89 CALM      29.89S
DULUTH         CLOUDY    44  38  79 NW7       29.93R
RED WING       CLEAR     43  37  81 CALM      29.99R
REDWOOD FALLS  CLEAR     44  37  76 SW6       29.99R
MANKATO        CLEAR     46  39  76 S6        30.01S
WORTHINGTON    CLEAR     48  38  68 SW7       30.04S
FAIRMONT       CLEAR     50  40  68 SW7       30.03R
$$

...SOUTHWEST WISCONSIN...


CITY           SKY/WX    TMP DP  RH WIND       PRES   REMARKS
LA CROSSE      CLEAR     52  42  69 CALM      30.03S
PRAIRIE DU CHI CLEAR     54  38  55 S3        30.08S
BOSCOBEL       CLEAR     46  40  79 SW3       30.08S
LONE ROCK      NOT AVBL
PLATTEVILLE    CLEAR     47  41  77 S8        30.12S
FORT MC COY    CLEAR     51  40  66 SW3       30.03F
MAUSTON-NEW LI SUNNY     53  39  59 SW8G16    30.02S
VIROQUA        FAIR      51  41  69 CALM      30.06R
WIS DELLS      CLEAR     51  37  58 SW9       30.06R
$$

...ELSEWHERE IN WISCONSIN...


CITY           SKY/WX    TMP DP  RH WIND       PRES   REMARKS
MILWAUKEE      PTCLDY    50  38  63 SW13      30.11F
MADISON        CLEAR     52  39  61 SW8       30.08F
GREEN BAY      CLEAR     51  40  65 SW8       30.01S
EAU CLAIRE     NOT AVBL
BLACK RVR FLS  FAIR      46  37  72 SW5       30.01S
MEDFORD        CLOUDY    42  36  78 SW5       29.98S
WAUSAU         CLOUDY    46  37  71 SW5       29.99R
WIS RAPIDS     CLEAR     47  39  74 SW6       30.02R
MARSHFIELD     CLEAR     45  36  70 SW6       30.00R
RICE LAKE      CLEAR     38  37  97 CALM      29.99R
$$

...NORTHEAST IOWA...


CITY           SKY/WX    TMP DP  RH WIND       PRES   REMARKS
WATERLOO       CLEAR     51  40  65 SW10      30.08S
DUBUQUE        CLOUDY    47  39  74 SW13      30.12S
DECORAH        CLEAR     52  41  66 VRB5G13   30.05S
MASON CITY     CLEAR     51  39  63 SW14      30.06S
CHARLES CITY   CLEAR     50  41  71 SW8       30.07S
OELWEIN        CLEAR     45  41  87 S8        30.10S
$$

...ELSEWHERE IN IOWA...


CITY           SKY/WX    TMP DP  RH WIND       PRES   REMARKS
DES MOINES     CLEAR     54  40  59 S10       30.13R
IOWA CITY      CLEAR     50  40  68 CALM      30.18R
FORT DODGE     CLEAR     48  40  73 S7        30.08S
MARSHALLTOWN   CLEAR     50  41  71 SW8       30.10S
CEDAR RAPIDS   CLEAR     50  41  71 SW9       30.13S
$$

...NORTHERN ILLINOIS...


CITY           SKY/WX    TMP DP  RH WIND       PRES   REMARKS
CHICAGO-OHARE  CLOUDY    50  37  61 SW9       30.19S
CHICAGO-MIDWAY CLOUDY    49  39  68 SW7       30.21S
MOLINE         CLEAR     50  38  63 VRB3      30.18S
ROCKFORD       CLOUDY    48  37  65 S8        30.19R
PEORIA         CLEAR     43  40  89 S6        30.25R
$$

NOTE: "FAIR" INDICATES FEW OR NO CLOUDS BELOW 12,000 FEET WITH NO
SIGNIFICANT WEATHER AND/OR OBSTRUCTIONS TO VISIBILITY. WIND
SPEEDS ARE IN MILES-PER-HOUR.




USA.gov is the U.S. government's official web portal to all federal, state and local government web resources and services.